| time (UTC) | temp F | wind direction | speed MPH | gust MPH | rain 1hr in | rain 24hr in | rain mn in | humidity % | barometer mb |
| 20260905230556 | 57 | 152 | 2.0 | 5.0 | 0.00 | 0.00 | 0.00 | 83 | 1025.1 |
| 20260905230109 | 57 | 165 | 1.0 | 3.0 | 0.00 | 0.00 | 0.00 | 84 | 1025.2 |
| 20260905225556 | 57 | 152 | 1.0 | 4.0 | 0.00 | 0.00 | 0.00 | 85 | 1025.2 |
| 20260905225056 | 57 | 123 | 1.0 | 4.0 | 0.00 | 0.00 | 0.00 | 85 | 1025.2 |
| 20260905224619 | 57 | 132 | 1.0 | 2.0 | 0.00 | 0.00 | 0.00 | 85 | 1025.2 |
| 20260905224059 | 57 | 48 | 0.0 | 2.0 | 0.00 | 0.00 | 0.00 | 86 | 1025.2 |
| 20260905223600 | 57 | 48 | 1.0 | 2.0 | 0.00 | 0.00 | 0.00 | 85 | 1025.0 |
| 20260905223118 | 57 | 48 | 0.0 | 1.0 | 0.00 | 0.00 | 0.00 | 85 | 1025.1 |
| 20260905222558 | 57 | 0 | 0.0 | 2.0 | 0.00 | 0.00 | 0.00 | 85 | 1025.1 |
| 20260905222056 | 57 | 0 | 0.0 | 2.0 | 0.00 | 0.00 | 0.00 | 85 | 1025.1 |
| 20260905221606 | 57 | 0 | 0.0 | 2.0 | 0.00 | 0.00 | 0.00 | 85 | 1025.0 |
| 20260905221056 | 57 | 48 | 0.0 | 2.0 | 0.00 | 0.00 | 0.00 | 84 | 1025.1 |
| 20260905220556 | 57 | 48 | 1.0 | 2.0 | 0.00 | 0.00 | 0.00 | 85 | 1025.1 |
| 20260905220103 | 57 | 48 | 0.0 | 2.0 | 0.00 | 0.00 | 0.00 | 84 | 1025.2 |
| 20260905215556 | 57 | 0 | 0.0 | 2.0 | 0.00 | 0.00 | 0.00 | 84 | 1025.3 |
| 20260905215100 | 57 | 48 | 0.0 | 2.0 | 0.00 | 0.00 | 0.00 | 84 | 1025.2 |
| 20260905214604 | 57 | 48 | 0.0 | 2.0 | 0.00 | 0.00 | 0.00 | 84 | 1025.3 |
| 20260905214056 | 57 | 0 | 0.0 | 2.0 | 0.00 | 0.00 | 0.00 | 84 | 1025.4 |
| 20260905213559 | 57 | 48 | 1.0 | 2.0 | 0.00 | 0.00 | 0.00 | 84 | 1025.3 |
| 20260905213107 | 57 | 0 | 0.0 | 0.0 | 0.00 | 0.00 | 0.00 | 84 | 1025.3 |
| 20260905212557 | 57 | 0 | 0.0 | 0.0 | 0.00 | 0.00 | 0.00 | 84 | 1025.5 |
| 20260905212058 | 57 | 0 | 0.0 | 0.0 | 0.00 | 0.00 | 0.00 | 82 | 1025.4 |
| 20260905211604 | 57 | 0 | 0.0 | 0.0 | 0.00 | 0.00 | 0.00 | 81 | 1025.5 |
| 20260905211056 | 57 | 0 | 0.0 | 0.0 | 0.00 | 0.00 | 0.00 | 80 | 1025.4 |
| 20260905210556 | 58 | 0 | 0.0 | 0.0 | 0.00 | 0.00 | 0.00 | 80 | 1025.4 |
| 20260905210107 | 58 | 0 | 0.0 | 0.0 | 0.00 | 0.00 | 0.00 | 81 | 1025.4 |
| 20260905205558 | 58 | 0 | 0.0 | 2.0 | 0.00 | 0.00 | 0.00 | 80 | 1025.3 |
| 20260905205056 | 58 | 0 | 0.0 | 3.0 | 0.00 | 0.00 | 0.00 | 79 | 1025.1 |
| 20260905204606 | 59 | 0 | 1.0 | 3.0 | 0.00 | 0.00 | 0.00 | 79 | 1025.1 |
| 20260905204058 | 59 | 48 | 1.0 | 3.0 | 0.00 | 0.00 | 0.00 | 80 | 1025.1 |
| 20260905203600 | 58 | 273 | 1.0 | 2.0 | 0.00 | 0.00 | 0.00 | 80 | 1025.2 |
| 20260905203105 | 58 | 0 | 0.0 | 2.0 | 0.00 | 0.00 | 0.00 | 80 | 1025.1 |
| 20260905202555 | 58 | 273 | 1.0 | 2.0 | 0.00 | 0.00 | 0.00 | 80 | 1025.1 |
| 20260905202056 | 58 | 273 | 0.0 | 2.0 | 0.00 | 0.00 | 0.00 | 81 | 1025.2 |
| 20260905201610 | 58 | 0 | 0.0 | 1.0 | 0.00 | 0.00 | 0.00 | 80 | 1025.3 |
| 20260905201056 | 58 | 0 | 0.0 | 0.0 | 0.00 | 0.00 | 0.00 | 80 | 1025.2 |
| 20260905200556 | 59 | 0 | 0.0 | 1.0 | 0.00 | 0.00 | 0.00 | 79 | 1025.2 |
| 20260905200109 | 59 | 0 | 0.0 | 1.0 | 0.00 | 0.00 | 0.00 | 78 | 1025.1 |
| 20260905195558 | 59 | 273 | 0.0 | 2.0 | 0.00 | 0.00 | 0.00 | 77 | 1025.2 |
| 20260905195059 | 59 | 0 | 1.0 | 2.0 | 0.00 | 0.00 | 0.00 | 77 | 1025.1 |
| 20260905194608 | 59 | 273 | 1.0 | 2.0 | 0.00 | 0.00 | 0.00 | 77 | 1025.1 |
| 20260905194056 | 59 | 0 | 0.0 | 1.0 | 0.00 | 0.00 | 0.00 | 77 | 1025.1 |
| 20260905193555 | 60 | 273 | 0.0 | 1.0 | 0.00 | 0.00 | 0.00 | 77 | 1025.3 |
| 20260905193104 | 60 | 273 | 0.0 | 2.0 | 0.00 | 0.00 | 0.00 | 76 | 1025.2 |
| 20260905192558 | 60 | 0 | 1.0 | 2.0 | 0.00 | 0.00 | 0.00 | 76 | 1025.1 |
| 20260905192055 | 60 | 273 | 0.0 | 1.0 | 0.00 | 0.00 | 0.00 | 76 | 1025.3 |
| 20260905191609 | 60 | 0 | 0.0 | 2.0 | 0.00 | 0.00 | 0.00 | 76 | 1025.2 |
| 20260905191059 | 60 | 0 | 0.0 | 2.0 | 0.00 | 0.00 | 0.00 | 75 | 1025.1 |
| 20260905190555 | 60 | 273 | 0.0 | 2.0 | 0.00 | 0.00 | 0.00 | 75 | 1025.1 |
| 20260905190105 | 60 | 273 | 0.0 | 2.0 | 0.00 | 0.00 | 0.00 | 75 | 1025.2 |
| 20260905185555 | 60 | 0 | 0.0 | 1.0 | 0.00 | 0.00 | 0.00 | 74 | 1025.2 |
| 20260905185055 | 61 | 0 | 0.0 | 1.0 | 0.00 | 0.00 | 0.00 | 74 | 1025.2 |
| 20260905184609 | 61 | 0 | 0.0 | 1.0 | 0.00 | 0.00 | 0.00 | 74 | 1025.2 |
| 20260905184059 | 61 | 0 | 0.0 | 2.0 | 0.00 | 0.00 | 0.00 | 72 | 1025.1 |
| 20260905183556 | 61 | 0 | 0.0 | 2.0 | 0.00 | 0.00 | 0.00 | 72 | 1025.1 |
| 20260905183109 | 61 | 0 | 1.0 | 3.0 | 0.00 | 0.00 | 0.00 | 71 | 1025.3 |
| 20260905182558 | 62 | 279 | 1.0 | 3.0 | 0.00 | 0.00 | 0.00 | 71 | 1025.1 |
| 20260905182056 | 62 | 279 | 1.0 | 3.0 | 0.00 | 0.00 | 0.00 | 70 | 1025.0 |
| 20260905181604 | 63 | 290 | 1.0 | 4.0 | 0.00 | 0.00 | 0.00 | 69 | 1025.1 |
| 20260905181059 | 63 | 288 | 2.0 | 4.0 | 0.00 | 0.00 | 0.00 | 68 | 1025.0 |
| 20260905180559 | 64 | 290 | 2.0 | 6.0 | 0.00 | 0.00 | 0.00 | 67 | 1025.2 |
| 20260905180106 | 64 | 283 | 2.0 | 6.0 | 0.00 | 0.00 | 0.00 | 66 | 1025.3 |
| 20260905175556 | 65 | 300 | 3.0 | 7.0 | 0.00 | 0.00 | 0.00 | 65 | 1025.4 |
| 20260905175057 | 66 | 300 | 3.0 | 7.0 | 0.00 | 0.00 | 0.00 | 63 | 1025.1 |
| 20260905174603 | 66 | 301 | 3.0 | 8.0 | 0.00 | 0.00 | 0.00 | 62 | 1025.1 |
| 20260905174100 | 67 | 330 | 3.0 | 10.0 | 0.00 | 0.00 | 0.00 | 62 | 1025.1 |
| 20260905173556 | 67 | 295 | 6.0 | 10.0 | 0.00 | 0.00 | 0.00 | 62 | 1025.2 |
| 20260905173131 | 67 | 284 | 4.0 | 10.0 | 0.00 | 0.00 | 0.00 | 62 | 1025.2 |
| 20260905172600 | 67 | 289 | 4.0 | 10.0 | 0.00 | 0.00 | 0.00 | 63 | 1025.2 |
| 20260905172059 | 67 | 292 | 7.0 | 10.0 | 0.00 | 0.00 | 0.00 | 62 | 1025.2 |
| 20260905171604 | 67 | 298 | 6.0 | 10.0 | 0.00 | 0.00 | 0.00 | 62 | 1025.2 |
| 20260905171056 | 67 | 275 | 6.0 | 12.0 | 0.00 | 0.00 | 0.00 | 61 | 1025.3 |
| 20260905170556 | 67 | 294 | 7.0 | 12.0 | 0.00 | 0.00 | 0.00 | 60 | 1025.2 |
| 20260905170113 | 68 | 295 | 6.0 | 13.0 | 0.00 | 0.00 | 0.00 | 60 | 1025.1 |
| 20260905165555 | 68 | 267 | 7.0 | 13.0 | 0.00 | 0.00 | 0.00 | 61 | 1025.0 |
| 20260905165056 | 68 | 323 | 6.0 | 10.0 | 0.00 | 0.00 | 0.00 | 59 | 1024.9 |
| 20260905164610 | 69 | 308 | 4.0 | 9.0 | 0.00 | 0.00 | 0.00 | 60 | 1025.0 |
| 20260905164056 | 69 | 274 | 4.0 | 8.0 | 0.00 | 0.00 | 0.00 | 60 | 1024.9 |
| 20260905163555 | 69 | 317 | 3.0 | 11.0 | 0.00 | 0.00 | 0.00 | 60 | 1024.9 |
| 20260905163122 | 69 | 319 | 5.0 | 11.0 | 0.00 | 0.00 | 0.00 | 60 | 1025.2 |
| 20260905162559 | 68 | 261 | 6.0 | 10.0 | 0.00 | 0.00 | 0.00 | 59 | 1025.1 |
| 20260905162056 | 68 | 290 | 4.0 | 9.0 | 0.00 | 0.00 | 0.00 | 59 | 1025.1 |
| 20260905161615 | 69 | 294 | 4.0 | 10.0 | 0.00 | 0.00 | 0.00 | 57 | 1025.2 |
| 20260905161056 | 69 | 318 | 5.0 | 10.0 | 0.00 | 0.00 | 0.00 | 58 | 1025.1 |
| 20260905160556 | 69 | 285 | 5.0 | 11.0 | 0.00 | 0.00 | 0.00 | 58 | 1025.2 |
| 20260905160101 | 69 | 299 | 4.0 | 12.0 | 0.00 | 0.00 | 0.00 | 59 | 1025.1 |
| 20260905155556 | 69 | 286 | 7.0 | 13.0 | 0.00 | 0.00 | 0.00 | 57 | 1025.2 |
| 20260905155058 | 69 | 321 | 6.0 | 13.0 | 0.00 | 0.00 | 0.00 | 59 | 1025.1 |
| 20260905154616 | 69 | 288 | 5.0 | 11.0 | 0.00 | 0.00 | 0.00 | 58 | 1025.2 |
| 20260905154102 | 69 | 282 | 6.0 | 11.0 | 0.00 | 0.00 | 0.00 | 57 | 1025.2 |
| 20260905153558 | 69 | 321 | 5.0 | 11.0 | 0.00 | 0.00 | 0.00 | 56 | 1025.1 |
| 20260905153102 | 69 | 308 | 6.0 | 14.0 | 0.00 | 0.00 | 0.00 | 58 | 1025.2 |
| 20260905152558 | 69 | 332 | 6.0 | 14.0 | 0.00 | 0.00 | 0.00 | 59 | 1025.4 |
| 20260905152058 | 69 | 275 | 6.0 | 14.0 | 0.00 | 0.00 | 0.00 | 58 | 1025.4 |
| 20260905151603 | 69 | 317 | 7.0 | 12.0 | 0.00 | 0.00 | 0.00 | 58 | 1025.3 |
| 20260905151059 | 69 | 333 | 5.0 | 12.0 | 0.00 | 0.00 | 0.00 | 58 | 1025.4 |
| 20260905150558 | 69 | 252 | 4.0 | 14.0 | 0.00 | 0.00 | 0.00 | 59 | 1025.3 |
| 20260905150109 | 69 | 290 | 7.0 | 14.0 | 0.00 | 0.00 | 0.00 | 57 | 1025.4 |
| 20260905145559 | 70 | 286 | 6.0 | 13.0 | 0.00 | 0.00 | 0.00 | 57 | 1025.4 |
| 20260905145058 | 70 | 289 | 5.0 | 12.0 | 0.00 | 0.00 | 0.00 | 58 | 1025.5 |
| 20260905144605 | 69 | 325 | 8.0 | 14.0 | 0.00 | 0.00 | 0.00 | 59 | 1025.6 |
| 20260905144058 | 70 | 291 | 5.0 | 14.0 | 0.00 | 0.00 | 0.00 | 57 | 1025.5 |
| 20260905143558 | 69 | 289 | 6.0 | 14.0 | 0.00 | 0.00 | 0.00 | 59 | 1025.7 |
| 20260905143110 | 69 | 286 | 7.0 | 15.0 | 0.00 | 0.00 | 0.00 | 60 | 1025.7 |
| 20260905142600 | 69 | 272 | 7.0 | 15.0 | 0.00 | 0.00 | 0.00 | 57 | 1025.7 |
| 20260905142058 | 69 | 294 | 9.0 | 15.0 | 0.00 | 0.00 | 0.00 | 58 | 1025.6 |
| 20260905141606 | 69 | 296 | 9.0 | 15.0 | 0.00 | 0.00 | 0.00 | 59 | 1025.7 |
| 20260905141058 | 69 | 261 | 5.0 | 13.0 | 0.00 | 0.00 | 0.00 | 56 | 1025.6 |
| 20260905140558 | 69 | 344 | 5.0 | 16.0 | 0.00 | 0.00 | 0.00 | 59 | 1025.7 |
| 20260905140105 | 69 | 360 | 5.0 | 16.0 | 0.00 | 0.00 | 0.00 | 58 | 1025.8 |
| 20260905135558 | 70 | 295 | 9.0 | 16.0 | 0.00 | 0.00 | 0.00 | 57 | 1025.8 |
| 20260905135102 | 70 | 331 | 5.0 | 13.0 | 0.00 | 0.00 | 0.00 | 59 | 1025.8 |
| 20260905134605 | 69 | 300 | 7.0 | 15.0 | 0.00 | 0.00 | 0.00 | 58 | 1025.8 |
| 20260905134058 | 70 | 271 | 5.0 | 15.0 | 0.00 | 0.00 | 0.00 | 59 | 1025.8 |
| 20260905133558 | 70 | 290 | 8.0 | 12.0 | 0.00 | 0.00 | 0.00 | 59 | 1025.9 |
| 20260905133106 | 69 | 294 | 7.0 | 13.0 | 0.00 | 0.00 | 0.00 | 57 | 1026.0 |
| 20260905132558 | 69 | 309 | 6.0 | 15.0 | 0.00 | 0.00 | 0.00 | 58 | 1025.8 |
| 20260905132059 | 69 | 321 | 6.0 | 15.0 | 0.00 | 0.00 | 0.00 | 59 | 1025.8 |
| 20260905131604 | 69 | 342 | 9.0 | 15.0 | 0.00 | 0.00 | 0.00 | 57 | 1025.8 |
| 20260905131103 | 70 | 258 | 8.0 | 14.0 | 0.00 | 0.00 | 0.00 | 59 | 1025.6 |
| 20260905130559 | 69 | 304 | 6.0 | 14.0 | 0.00 | 0.00 | 0.00 | 60 | 1025.7 |
| 20260905130104 | 69 | 299 | 7.0 | 14.0 | 0.00 | 0.00 | 0.00 | 59 | 1025.6 |
| 20260905125558 | 68 | 360 | 7.0 | 14.0 | 0.00 | 0.00 | 0.00 | 60 | 1025.6 |
| 20260905125058 | 68 | 266 | 8.0 | 14.0 | 0.00 | 0.00 | 0.00 | 60 | 1025.6 |
| 20260905124605 | 68 | 315 | 7.0 | 14.0 | 0.00 | 0.00 | 0.00 | 60 | 1025.6 |
| 20260905124059 | 68 | 313 | 5.0 | 14.0 | 0.00 | 0.00 | 0.00 | 62 | 1025.5 |
| 20260905123558 | 68 | 298 | 10.0 | 14.0 | 0.00 | 0.00 | 0.00 | 60 | 1025.6 |
| 20260905123110 | 69 | 304 | 7.0 | 13.0 | 0.00 | 0.00 | 0.00 | 59 | 1025.7 |
| 20260905122559 | 69 | 294 | 6.0 | 13.0 | 0.00 | 0.00 | 0.00 | 60 | 1025.6 |
| 20260905122059 | 69 | 289 | 8.0 | 13.0 | 0.00 | 0.00 | 0.00 | 59 | 1025.7 |
| 20260905121606 | 68 | 328 | 6.0 | 13.0 | 0.00 | 0.00 | 0.00 | 60 | 1025.5 |
| 20260905121059 | 67 | 300 | 5.0 | 13.0 | 0.00 | 0.00 | 0.00 | 60 | 1025.5 |
| 20260905120559 | 68 | 248 | 6.0 | 15.0 | 0.00 | 0.00 | 0.00 | 59 | 1025.5 |
| 20260905120106 | 68 | 312 | 7.0 | 15.0 | 0.00 | 0.00 | 0.00 | 59 | 1025.6 |
| 20260905115558 | 68 | 300 | 9.0 | 15.0 | 0.00 | 0.00 | 0.00 | 59 | 1025.5 |
| 20260905115058 | 67 | 319 | 8.0 | 13.0 | 0.00 | 0.00 | 0.00 | 59 | 1025.4 |
| 20260905114606 | 67 | 327 | 6.0 | 13.0 | 0.00 | 0.00 | 0.00 | 59 | 1025.4 |
| 20260905114058 | 68 | 300 | 7.0 | 13.0 | 0.00 | 0.00 | 0.00 | 60 | 1025.6 |
| 20260905113559 | 67 | 291 | 7.0 | 15.0 | 0.00 | 0.00 | 0.00 | 60 | 1025.5 |
| 20260905113100 | 68 | 302 | 9.0 | 15.0 | 0.00 | 0.00 | 0.00 | 58 | 1025.3 |
| 20260905112559 | 67 | 325 | 8.0 | 14.0 | 0.00 | 0.00 | 0.00 | 59 | 1025.2 |
| 20260905112100 | 68 | 315 | 6.0 | 14.0 | 0.00 | 0.00 | 0.00 | 58 | 1025.2 |
| 20260905111605 | 68 | 351 | 7.0 | 15.0 | 0.00 | 0.00 | 0.00 | 59 | 1025.3 |
| 20260905111059 | 68 | 277 | 9.0 | 15.0 | 0.00 | 0.00 | 0.00 | 58 | 1025.2 |
| 20260905110600 | 68 | 315 | 4.0 | 12.0 | 0.00 | 0.00 | 0.00 | 61 | 1025.2 |
| 20260905110104 | 67 | 267 | 7.0 | 12.0 | 0.00 | 0.00 | 0.00 | 59 | 1025.4 |
| 20260905105559 | 68 | 301 | 5.0 | 12.0 | 0.00 | 0.00 | 0.00 | 59 | 1025.5 |
| 20260905105101 | 67 | 291 | 6.0 | 12.0 | 0.00 | 0.00 | 0.00 | 59 | 1025.5 |
| 20260905104603 | 67 | 314 | 4.0 | 12.0 | 0.00 | 0.00 | 0.00 | 59 | 1025.5 |
| 20260905104059 | 66 | 300 | 5.0 | 12.0 | 0.00 | 0.00 | 0.00 | 62 | 1025.4 |
| 20260905103558 | 65 | 296 | 5.0 | 12.0 | 0.00 | 0.00 | 0.00 | 63 | 1025.5 |
| 20260905103106 | 65 | 284 | 7.0 | 12.0 | 0.00 | 0.00 | 0.00 | 62 | 1025.4 |
| 20260905102557 | 65 | 339 | 7.0 | 12.0 | 0.00 | 0.00 | 0.00 | 61 | 1025.5 |
| 20260905102059 | 65 | 290 | 6.0 | 13.0 | 0.00 | 0.00 | 0.00 | 62 | 1025.5 |
| 20260905101609 | 66 | 284 | 7.0 | 13.0 | 0.00 | 0.00 | 0.00 | 62 | 1025.3 |
| 20260905101100 | 66 | 319 | 5.0 | 13.0 | 0.00 | 0.00 | 0.00 | 61 | 1025.3 |
| 20260905100558 | 66 | 298 | 6.0 | 13.0 | 0.00 | 0.00 | 0.00 | 62 | 1025.3 |
| 20260905100124 | 66 | 296 | 4.0 | 12.0 | 0.00 | 0.00 | 0.00 | 63 | 1025.3 |
| 20260905095558 | 65 | 276 | 5.0 | 12.0 | 0.00 | 0.00 | 0.00 | 63 | 1025.3 |
| 20260905095058 | 65 | 290 | 5.0 | 12.0 | 0.00 | 0.00 | 0.00 | 63 | 1025.3 |
| 20260905094607 | 65 | 340 | 6.0 | 12.0 | 0.00 | 0.00 | 0.00 | 62 | 1025.3 |
| 20260905094058 | 66 | 317 | 6.0 | 12.0 | 0.00 | 0.00 | 0.00 | 62 | 1025.1 |
| 20260905093558 | 66 | 5 | 6.0 | 11.0 | 0.00 | 0.00 | 0.00 | 61 | 1025.0 |
| 20260905093101 | 65 | 328 | 6.0 | 11.0 | 0.00 | 0.00 | 0.00 | 61 | 1025.0 |
| 20260905092601 | 65 | 352 | 6.0 | 11.0 | 0.00 | 0.00 | 0.00 | 64 | 1025.0 |
| 20260905092057 | 64 | 309 | 6.0 | 11.0 | 0.00 | 0.00 | 0.00 | 64 | 1024.9 |
| 20260905091614 | 64 | 327 | 5.0 | 11.0 | 0.00 | 0.00 | 0.00 | 63 | 1024.9 |
| 20260905091100 | 64 | 313 | 5.0 | 12.0 | 0.00 | 0.00 | 0.00 | 64 | 1024.7 |
| 20260905090601 | 64 | 327 | 7.0 | 12.0 | 0.00 | 0.00 | 0.00 | 62 | 1024.7 |
| 20260905085601 | 65 | 300 | 7.0 | 13.0 | 0.00 | 0.00 | 0.00 | 63 | 1024.5 |
| 20260905085059 | 65 | 314 | 6.0 | 13.0 | 0.00 | 0.00 | 0.00 | 64 | 1024.7 |
| 20260905084603 | 64 | 343 | 5.0 | 12.0 | 0.00 | 0.00 | 0.00 | 67 | 1024.5 |
| 20260905084058 | 64 | 322 | 7.0 | 12.0 | 0.00 | 0.00 | 0.00 | 67 | 1024.5 |
| 20260905083558 | 63 | 321 | 6.0 | 12.0 | 0.00 | 0.00 | 0.00 | 68 | 1024.4 |
| 20260905083124 | 63 | 336 | 7.0 | 12.0 | 0.00 | 0.00 | 0.00 | 68 | 1024.5 |
| 20260905082559 | 63 | 302 | 5.0 | 13.0 | 0.00 | 0.00 | 0.00 | 69 | 1024.4 |
| 20260905082059 | 63 | 305 | 6.0 | 13.0 | 0.00 | 0.00 | 0.00 | 69 | 1024.3 |
| 20260905081619 | 62 | 323 | 6.0 | 13.0 | 0.00 | 0.00 | 0.00 | 69 | 1024.3 |
| 20260905081100 | 62 | 334 | 6.0 | 13.0 | 0.00 | 0.00 | 0.00 | 70 | 1024.3 |
| 20260905080558 | 62 | 323 | 6.0 | 11.0 | 0.00 | 0.00 | 0.00 | 70 | 1024.3 |
| 20260905080104 | 62 | 338 | 5.0 | 9.0 | 0.00 | 0.00 | 0.00 | 71 | 1024.2 |
| 20260905075559 | 62 | 321 | 5.0 | 12.0 | 0.00 | 0.02 | 0.00 | 71 | 1024.1 |
| 20260905075059 | 62 | 346 | 5.0 | 12.0 | 0.00 | 0.02 | 0.00 | 70 | 1024.0 |
| 20260905074602 | 63 | 360 | 7.0 | 12.0 | 0.00 | 0.02 | 0.00 | 70 | 1024.0 |
| 20260905074058 | 63 | 300 | 6.0 | 12.0 | 0.00 | 0.02 | 0.00 | 70 | 1024.0 |
| 20260905073558 | 63 | 329 | 5.0 | 11.0 | 0.00 | 0.02 | 0.00 | 70 | 1024.0 |
| 20260905073101 | 62 | 288 | 5.0 | 11.0 | 0.00 | 0.02 | 0.00 | 71 | 1024.0 |
| 20260905072602 | 62 | 313 | 4.0 | 10.0 | 0.00 | 0.02 | 0.00 | 71 | 1023.9 |
| 20260905072101 | 62 | 315 | 4.0 | 9.0 | 0.00 | 0.02 | 0.00 | 72 | 1023.8 |
| 20260905071615 | 61 | 338 | 4.0 | 9.0 | 0.00 | 0.02 | 0.00 | 73 | 1023.8 |
| 20260905071059 | 61 | 298 | 4.0 | 10.0 | 0.00 | 0.02 | 0.00 | 73 | 1023.7 |
| 20260905070603 | 60 | 308 | 4.0 | 11.0 | 0.00 | 0.02 | 0.00 | 74 | 1023.7 |
| 20260905070107 | 60 | 352 | 4.0 | 11.0 | 0.00 | 0.02 | 0.00 | 74 | 1023.6 |
| 20260905065601 | 60 | 306 | 5.0 | 11.0 | 0.00 | 0.02 | 0.00 | 75 | 1023.6 |
| 20260905065058 | 60 | 291 | 3.0 | 13.0 | 0.00 | 0.02 | 0.00 | 75 | 1023.6 |
| 20260905064618 | 60 | 319 | 6.0 | 13.0 | 0.00 | 0.02 | 0.00 | 74 | 1023.5 |
| 20260905064058 | 60 | 321 | 5.0 | 12.0 | 0.00 | 0.02 | 0.00 | 75 | 1023.5 |
| 20260905063558 | 60 | 312 | 5.0 | 12.0 | 0.00 | 0.02 | 0.00 | 75 | 1023.4 |
| 20260905063129 | 60 | 317 | 7.0 | 11.0 | 0.00 | 0.02 | 0.00 | 75 | 1023.5 |
| 20260905062558 | 59 | 327 | 4.0 | 10.0 | 0.00 | 0.02 | 0.00 | 75 | 1023.4 |
| 20260905062057 | 59 | 323 | 5.0 | 12.0 | 0.00 | 0.02 | 0.00 | 75 | 1023.2 |
| 20260905061608 | 59 | 319 | 5.0 | 12.0 | 0.00 | 0.02 | 0.00 | 75 | 1023.2 |
| 20260905061059 | 59 | 313 | 4.0 | 10.0 | 0.00 | 0.02 | 0.00 | 76 | 1023.2 |
| 20260905060600 | 59 | 306 | 5.0 | 11.0 | 0.00 | 0.02 | 0.00 | 75 | 1023.3 |
| 20260905060107 | 59 | 295 | 5.0 | 11.0 | 0.00 | 0.02 | 0.00 | 75 | 1023.1 |
| 20260905055600 | 59 | 320 | 4.0 | 12.0 | 0.00 | 0.07 | 0.00 | 75 | 1023.2 |
| 20260905055101 | 59 | 321 | 4.0 | 12.0 | 0.00 | 0.07 | 0.00 | 75 | 1023.0 |
| 20260905054710 | 59 | 298 | 7.0 | 12.0 | 0.00 | 0.07 | 0.00 | 75 | 1023.0 |
| 20260905054058 | 59 | 336 | 5.0 | 10.0 | 0.00 | 0.07 | 0.00 | 76 | 1023.0 |
| 20260905053558 | 59 | 327 | 4.0 | 10.0 | 0.00 | 0.07 | 0.00 | 76 | 1023.0 |
| 20260905053101 | 59 | 313 | 4.0 | 10.0 | 0.00 | 0.07 | 0.00 | 76 | 1022.9 |
| 20260905052557 | 59 | 315 | 5.0 | 11.0 | 0.00 | 0.07 | 0.00 | 75 | 1022.8 |
| 20260905052059 | 59 | 352 | 5.0 | 11.0 | 0.00 | 0.07 | 0.00 | 75 | 1022.8 |
| 20260905051606 | 59 | 329 | 3.0 | 8.0 | 0.00 | 0.07 | 0.00 | 74 | 1022.8 |
| 20260905051057 | 59 | 325 | 3.0 | 9.0 | 0.00 | 0.07 | 0.00 | 73 | 1022.7 |
| 20260905050558 | 59 | 321 | 3.0 | 10.0 | 0.00 | 0.07 | 0.00 | 73 | 1022.6 |
| 20260905050107 | 59 | 288 | 4.0 | 10.0 | 0.00 | 0.07 | 0.00 | 73 | 1022.5 |
| 20260905045559 | 59 | 311 | 4.0 | 10.0 | 0.00 | 0.07 | 0.00 | 73 | 1022.6 |
| 20260905045058 | 59 | 310 | 6.0 | 10.0 | 0.00 | 0.07 | 0.00 | 75 | 1022.6 |
| 20260905044609 | 59 | 290 | 3.0 | 10.0 | 0.00 | 0.07 | 0.00 | 77 | 1022.6 |
| 20260905044058 | 59 | 298 | 4.0 | 10.0 | 0.00 | 0.07 | 0.00 | 77 | 1022.4 |
| 20260905043600 | 59 | 325 | 5.0 | 10.0 | 0.00 | 0.07 | 0.00 | 78 | 1022.3 |
| 20260905043106 | 59 | 318 | 4.0 | 12.0 | 0.00 | 0.07 | 0.00 | 77 | 1022.2 |
| 20260905042557 | 59 | 316 | 5.0 | 12.0 | 0.00 | 0.07 | 0.00 | 77 | 1022.2 |
| 20260905042058 | 59 | 313 | 6.0 | 14.0 | 0.00 | 0.07 | 0.00 | 77 | 1022.3 |
| 20260905041609 | 59 | 360 | 6.0 | 14.0 | 0.00 | 0.07 | 0.00 | 76 | 1022.2 |
| 20260905041057 | 59 | 311 | 7.0 | 14.0 | 0.00 | 0.07 | 0.00 | 76 | 1022.2 |
| 20260905040559 | 59 | 315 | 6.0 | 13.0 | 0.00 | 0.07 | 0.00 | 77 | 1022.1 |
| 20260905040112 | 59 | 324 | 5.0 | 12.0 | 0.00 | 0.07 | 0.00 | 77 | 1022.2 |
| 20260905035558 | 59 | 327 | 4.0 | 12.0 | 0.00 | 0.07 | 0.00 | 76 | 1022.1 |
| 20260905035058 | 59 | 302 | 6.0 | 12.0 | 0.00 | 0.07 | 0.00 | 76 | 1022.0 |
| 20260905034608 | 59 | 309 | 6.0 | 13.0 | 0.00 | 0.07 | 0.00 | 76 | 1022.0 |
| 20260905034100 | 59 | 306 | 5.0 | 13.0 | 0.00 | 0.07 | 0.00 | 76 | 1021.9 |
| 20260905033558 | 59 | 337 | 7.0 | 13.0 | 0.00 | 0.07 | 0.00 | 76 | 1021.9 |
| 20260905033105 | 59 | 329 | 7.0 | 13.0 | 0.00 | 0.07 | 0.00 | 77 | 1021.9 |
| 20260905032601 | 59 | 321 | 7.0 | 12.0 | 0.00 | 0.07 | 0.00 | 78 | 1021.7 |
| 20260905032100 | 59 | 307 | 5.0 | 11.0 | 0.00 | 0.07 | 0.00 | 79 | 1021.6 |
| 20260905031611 | 59 | 308 | 6.0 | 11.0 | 0.00 | 0.07 | 0.00 | 79 | 1021.7 |
| 20260905031058 | 59 | 298 | 5.0 | 11.0 | 0.00 | 0.07 | 0.00 | 79 | 1021.7 |
| 20260905030558 | 59 | 319 | 4.0 | 10.0 | 0.00 | 0.07 | 0.00 | 79 | 1021.7 |
| 20260905025558 | 59 | 325 | 6.0 | 11.0 | 0.00 | 0.07 | 0.00 | 79 | 1021.5 |
| 20260905025058 | 59 | 325 | 5.0 | 12.0 | 0.00 | 0.07 | 0.00 | 78 | 1021.5 |
| 20260905024615 | 60 | 319 | 6.0 | 12.0 | 0.00 | 0.07 | 0.00 | 78 | 1021.5 |
| 20260905024058 | 60 | 298 | 6.0 | 12.0 | 0.00 | 0.07 | 0.00 | 78 | 1021.6 |
| 20260905023601 | 60 | 298 | 6.0 | 11.0 | 0.00 | 0.07 | 0.00 | 79 | 1021.5 |
| 20260905023100 | 60 | 305 | 5.0 | 13.0 | 0.00 | 0.07 | 0.00 | 78 | 1021.5 |
| 20260905022600 | 60 | 334 | 7.0 | 13.0 | 0.00 | 0.07 | 0.00 | 78 | 1021.5 |
| 20260905022058 | 61 | 342 | 7.0 | 13.0 | 0.00 | 0.07 | 0.00 | 78 | 1021.5 |
| 20260905021610 | 61 | 335 | 6.0 | 14.0 | 0.00 | 0.07 | 0.00 | 78 | 1021.3 |
| 20260905021059 | 61 | 303 | 7.0 | 14.0 | 0.00 | 0.07 | 0.00 | 79 | 1021.4 |
| 20260905020601 | 61 | 311 | 5.0 | 13.0 | 0.00 | 0.07 | 0.00 | 80 | 1021.4 |
| 20260905015558 | 61 | 334 | 6.0 | 11.0 | 0.00 | 0.07 | 0.00 | 79 | 1021.2 |
| 20260905015058 | 61 | 285 | 6.0 | 11.0 | 0.00 | 0.07 | 0.00 | 78 | 1021.2 |
| 20260905014604 | 61 | 334 | 5.0 | 12.0 | 0.00 | 0.07 | 0.00 | 78 | 1021.0 |
| 20260905014058 | 61 | 327 | 6.0 | 12.0 | 0.00 | 0.07 | 0.00 | 78 | 1021.0 |
| 20260905013558 | 61 | 294 | 6.0 | 12.0 | 0.00 | 0.07 | 0.00 | 78 | 1021.1 |
| 20260905013104 | 61 | 296 | 5.0 | 13.0 | 0.00 | 0.07 | 0.00 | 77 | 1021.1 |
| 20260905012600 | 61 | 316 | 6.0 | 13.0 | 0.00 | 0.07 | 0.00 | 77 | 1021.0 |
| 20260905012058 | 61 | 294 | 5.0 | 10.0 | 0.00 | 0.07 | 0.00 | 78 | 1020.9 |
| 20260905011604 | 61 | 306 | 3.0 | 10.0 | 0.00 | 0.07 | 0.00 | 78 | 1020.9 |
| 20260905011100 | 61 | 316 | 5.0 | 10.0 | 0.00 | 0.07 | 0.00 | 78 | 1020.9 |
| 20260905010558 | 61 | 346 | 5.0 | 11.0 | 0.00 | 0.07 | 0.00 | 77 | 1020.9 |
| 20260905010110 | 61 | 295 | 6.0 | 11.0 | 0.00 | 0.07 | 0.00 | 77 | 1020.7 |
| 20260905005558 | 61 | 333 | 5.0 | 11.0 | 0.00 | 0.07 | 0.00 | 77 | 1021.0 |
| 20260905005058 | 62 | 317 | 4.0 | 13.0 | 0.00 | 0.07 | 0.00 | 77 | 1021.0 |
| 20260905004608 | 62 | 332 | 6.0 | 13.0 | 0.00 | 0.07 | 0.00 | 77 | 1020.8 |
| 20260905004058 | 62 | 295 | 7.0 | 14.0 | 0.00 | 0.07 | 0.00 | 76 | 1020.8 |
| 20260905003558 | 62 | 306 | 5.0 | 14.0 | 0.00 | 0.07 | 0.00 | 76 | 1020.9 |
| 20260905003102 | 62 | 325 | 6.0 | 13.0 | 0.00 | 0.07 | 0.00 | 76 | 1020.8 |
| 20260905002559 | 62 | 360 | 5.0 | 14.0 | 0.00 | 0.07 | 0.00 | 76 | 1020.9 |
| 20260905002101 | 62 | 309 | 6.0 | 14.0 | 0.00 | 0.07 | 0.00 | 76 | 1020.8 |
| 20260905001603 | 63 | 290 | 7.0 | 14.0 | 0.00 | 0.07 | 0.00 | 76 | 1020.7 |
| 20260905001058 | 63 | 288 | 6.0 | 12.0 | 0.00 | 0.07 | 0.00 | 76 | 1020.7 |
| 20260905000558 | 63 | 299 | 5.0 | 12.0 | 0.00 | 0.07 | 0.00 | 75 | 1020.6 |
| 20260905000109 | 63 | 294 | 6.0 | 11.0 | 0.00 | 0.07 | 0.00 | 75 | 1020.6 |
| 20260904235558 | 63 | 273 | 5.0 | 11.0 | 0.00 | 0.07 | 0.00 | 75 | 1020.6 |
| 20260904235100 | 63 | 319 | 5.0 | 14.0 | 0.00 | 0.07 | 0.00 | 76 | 1020.5 |
| 20260904234611 | 63 | 288 | 8.0 | 14.0 | 0.00 | 0.07 | 0.00 | 76 | 1020.5 |
| 20260904234100 | 63 | 281 | 5.0 | 15.0 | 0.00 | 0.07 | 0.00 | 75 | 1020.6 |
| 20260904233558 | 63 | 311 | 8.0 | 15.0 | 0.00 | 0.07 | 0.00 | 75 | 1020.5 |
| 20260904233107 | 63 | 360 | 5.0 | 9.0 | 0.00 | 0.07 | 0.00 | 76 | 1020.5 |
| 20260904232559 | 63 | 304 | 4.0 | 8.0 | 0.00 | 0.07 | 0.00 | 76 | 1020.5 |
| 20260904232058 | 63 | 306 | 4.0 | 13.0 | 0.00 | 0.07 | 0.00 | 76 | 1020.5 |
| 20260904231608 | 63 | 289 | 6.0 | 13.0 | 0.00 | 0.07 | 0.00 | 75 | 1020.5 |
| 20260904231058 | 63 | 315 | 6.0 | 13.0 | 0.00 | 0.07 | 0.00 | 75 | 1020.4 |
| 20260904230559 | 63 | 298 | 5.0 | 15.0 | 0.00 | 0.07 | 0.00 | 75 | 1020.5 |